Wind_Speed
11 12 13 15 15 15 14 15 16 17 17 17 18 19 19 20 19 18 17 18 19 20 20 20 20 20 20 20 20 21 23 26 28 28 26 24 23 22 22 22 23 24 26 28 29 29 28 27 25 24 23 22 21 20 19 18 18 19 20 20 22 23 25 27 30 33 35 36 36 36 35 35 35 35 36 37 38 39 39 39 40 41 43 45 47 48
12 13 13 14 15 15 14 15 16 16 17 18 19 19 20 20 19 18 17 18 19 20 20 20 20 20 20 20 20 21 24 26 28 28 26 24 23 22 22 23 24 26 28 29 29 28 27 26 24 23 21 20 19 18 18 18 19 20 21 21 21 22 23 25 27 31 34 36 37 37 36 36 35 35 36 36 37 38 39 40 40 41 42 44 46 48
12 13 13 14 14 14 14 15 16 16 16 17 18 19 20 20 19 18 18 19 20 21 21 21 20 20 20 20 21 23 25 28 28 28 26 24 23 23 23 23 25 27 29 30 29 28 27 25 24 22 21 19 18 17 17 18 20 21 23 23 22 22 22 22 24 28 31 35 37 38 38 37 37 36 36 36 37 38 39 40 40 41 42 44 46 48
12 12 13 14 14 13 14 14 15 15 16 17 18 18 19 18 18 17 18 19 21 22 22 21 20 20 20 20 21 24 27 28 28 27 25 24 23 22 23 24 26 28 30 30 29 28 27 26 25 23 21 20 19 18 18 19 21 22 24 24 23 22 21 21 22 24 27 32 35 38 38 38 38 37 36 36 36 37 38 39 40 41 42 44 45 47
12 12 13 14 13 13 14 14 14 15 16 16 17 17 17 17 17 17 18 20 21 22 21 21 20 19 19 20 22 25 28 28 28 26 24 23 22 22 23 25 27 29 30 29 28 28 27 26 25 24 22 21 20 19 20 20 21 22 23 24 23 22 21 20 20 20 22 25 30 34 37 38 38 38 37 36 36 37 37 38 40 41 42 43 44 45
12 12 13 13 13 13 14 13 14 15 16 17 17 16 16 16 16 17 19 20 21 21 21 20 19 19 19 21 24 26 28 27 26 24 23 22 22 22 24 26 28 29 29 29 28 27 27 26 25 24 23 22 21 21 21 21 21 22 23 23 23 22 21 20 19 19 19 19 23 27 32 35 37 38 38 37 37 37 37 38 39 40 42 43 44 44
12 12 12 13 13 13 13 12 13 14 16 17 17 17 17 16 16 17 18 19 20 20 20 20 19 19 20 22 25 26 27 26 24 23 22 22 22 23 25 27 28 29 28 28 27 27 26 25 25 24 23 22 22 21 21 21 21 22 23 23 22 22 21 20 19 19 19 18 18 20 24 29 33 35 36 37 37 37 37 37 38 39 41 43 43 44
12 13 13 13 13 13 13 12 12 14 16 17 18 18 18 18 18 18 18 19 19 19 20 20 20 20 21 23 25 25 24 23 22 22 21 21 22 24 26 28 29 28 27 27 27 26 26 25 24 23 23 22 22 22 21 21 22 23 24 24 24 23 22 21 20 19 19 19 19 18 18 21 25 29 32 34 35 35 36 37 37 38 39 41 43 44
12 13 13 13 13 13 13 13 13 14 15 16 17 17 18 19 19 19 19 19 18 18 19 20 21 21 22 23 24 24 23 21 21 20 21 21 23 25 27 28 28 27 27 26 26 26 25 24 23 23 23 23 22 22 22 22 23 24 25 26 26 26 24 23 21 20 19 20 20 21 20 19 20 22 26 29 31 33 34 35 36 37 38 40 42 44
12 12 13 12 12 12 12 13 14 14 15 15 15 15 16 18 19 21 21 20 19 19 19 19 21 22 23 23 24 23 22 21 20 20 20 22 23 25 26 26 26 25 25 25 25 24 23 23 23 23 23 23 22 22 22 23 24 25 27 28 29 28 27 25 23 21 20 20 21 23 23 22 20 20 21 23 26 29 31 33 34 36 38 40 42 43
12 12 12 12 12 12 12 12 13 14 15 15 15 15 14 16 18 20 21 21 21 20 20 20 20 21 23 24 23 23 21 21 21 21 21 22 23 25 25 25 25 24 24 24 24 23 22 22 23 23 23 23 23 23 23 24 25 27 29 31 31 30 28 25 23 22 21 22 23 25 25 25 22 20 19 20 22 25 28 31 34 36 37 39 42 43
11 11 11 12 12 12 12 13 13 14 15 16 16 16 16 16 17 18 19 20 21 21 21 21 20 20 21 22 22 22 21 21 21 22 22 23 23 24 25 24 24 23 23 23 22 21 21 22 23 23 23 23 23 23 24 26 27 29 31 32 31 30 27 25 23 22 22 23 25 26 27 26 24 22 20 20 21 22 24 28 31 35 37 39 41 43
11 11 11 11 12 12 12 13 14 14 15 15 16 16 17 18 18 18 18 19 19 20 21 22 22 21 21 20 20 20 20 21 21 22 22 23 23 24 24 24 23 23 23 23 22 21 21 22 23 23 23 23 23 24 26 28 30 31 32 32 31 29 27 24 23 22 24 26 27 28 28 28 26 23 21 20 21 21 23 24 27 31 35 38 40 41
11 11 11 11 11 11 12 13 14 14 14 15 15 16 17 18 18 18 18 18 19 20 20 21 21 21 20 19 18 18 19 20 22 23 23 23 23 23 24 24 23 23 23 22 22 22 22 23 23 23 23 23 24 26 28 30 32 33 32 31 30 29 27 25 24 24 26 27 28 28 29 29 27 25 23 22 21 22 22 23 25 27 31 35 39 41
11 11 11 11 11 11 12 12 13 13 14 14 15 16 17 17 18 18 18 18 19 20 20 20 21 20 19 17 17 17 19 20 22 23 24 24 23 23 23 23 23 23 22 22 22 22 23 23 23 23 24 24 26 28 31 33 33 33 32 31 30 29 28 26 26 27 28 28 28 29 29 28 27 26 24 23 23 22 23 23 24 25 27 31 36 39
10 10 10 10 10 11 11 12 12 13 14 14 15 15 16 17 18 18 18 18 19 19 19 19 19 19 18 16 15 16 19 21 22 24 25 25 24 23 22 23 23 23 22 22 22 22 23 23 23 23 24 25 28 30 33 34 33 32 31 31 30 29 28 28 28 28 28 28 29 28 28 27 26 25 25 25 25 24 24 24 24 25 26 28 32 36
9 9 9 10 10 11 12 12 12 13 14 14 15 15 16 16 17 18 17 18 18 18 17 17 15 14 15 17 17 16 18 21 23 24 25 25 24 23 22 22 23 23 23 22 22 22 23 23 24 24 25 27 30 32 33 33 33 32 31 30 30 30 29 29 29 29 29 29 29 28 26 25 26 26 27 27 27 27 26 26 25 25 25 27 29 32
8 9 9 9 10 11 12 12 12 13 14 15 16 17 17 17 17 17 17 17 18 18 18 17 15 13 13 16 18 18 20 21 23 23 23 24 24 23 22 22 22 23 23 23 23 23 23 24 24 25 27 29 31 32 33 32 32 31 30 30 30 30 30 30 30 29 29 29 28 27 25 25 26 27 28 28 28 28 28 27 27 26 26 26 27 29
8 9 9 10 11 12 12 13 13 14 16 17 18 19 19 19 18 18 18 18 18 18 18 17 17 17 17 18 20 21 21 22 22 22 22 22 23 23 22 22 22 22 23 23 23 24 24 24 25 27 27 29 30 31 31 32 31 31 30 30 30 30 30 30 30 30 30 30 28 27 26 26 27 28 29 29 29 28 28 28 27 27 26 26 27 28
8 9 9 10 11 12 13 13 14 15 16 18 18 19 19 19 18 18 18 18 18 18 18 18 18 18 19 21 22 22 22 22 21 21 20 21 22 22 21 21 22 23 24 24 24 24 24 24 25 26 27 28 29 30 31 31 31 30 29 29 29 29 30 30 31 31 31 30 29 28 28 28 29 29 30 29 29 28 28 28 28 27 27 27 27 27
9 9 9 10 11 12 12 13 14 15 17 18 18 17 17 17 18 18 18 18 19 19 18 18 18 19 20 21 22 22 22 21 20 20 20 20 21 21 20 20 21 23 24 25 25 25 24 24 25 25 26 27 29 30 30 30 30 29 28 28 29 30 31 32 32 31 31 30 30 30 29 30 30 30 30 29 29 28 28 28 28 28 28 28 28 28
8 9 10 10 10 11 12 13 15 16 17 17 16 16 16 16 17 17 18 18 18 18 18 18 19 20 21 21 22 21 20 18 18 18 19 19 20 21 20 20 21 23 24 25 25 25 25 25 25 25 26 28 29 29 29 29 28 27 27 28 29 31 32 33 32 32 31 31 30 30 30 30 30 30 30 30 29 29 29 29 29 29 29 29 29 28
8 9 10 10 10 11 12 14 15 16 16 15 15 15 15 15 16 17 17 18 18 18 18 19 20 20 20 20 19 19 17 16 16 17 17 16 18 20 20 21 22 23 24 25 25 26 26 26 26 26 26 27 28 28 27 27 26 26 27 28 30 32 33 33 32 32 31 31 31 30 30 30 31 31 31 31 31 30 30 30 30 30 30 30 30 29
8 9 10 10 11 12 13 14 15 15 15 15 15 15 15 15 16 16 16 16 16 17 17 18 19 19 18 18 17 16 15 15 16 16 16 15 17 19 21 21 22 23 25 25 26 26 27 27 26 26 26 26 26 26 25 25 25 26 27 29 31 32 32 32 32 31 31 31 30 30 31 31 31 32 32 32 32 31 31 31 30 30 30 30 31 30
8 9 10 11 12 13 13 13 14 14 15 15 15 16 15 15 15 15 14 14 14 15 16 17 17 17 17 17 16 16 15 15 16 16 15 15 17 20 21 21 22 23 25 26 27 27 26 27 27 26 25 25 24 23 23 23 25 26 28 30 31 32 32 31 31 30 30 30 31 31 31 32 32 32 32 32 32 31 31 30 30 30 30 31 31 31
9 9 10 11 12 12 13 13 13 13 14 14 14 15 15 14 14 13 12 12 13 14 15 15 15 15 16 16 16 16 16 17 16 15 15 15 17 20 21 21 21 22 25 27 27 27 26 27 27 26 24 23 22 22 22 24 26 28 29 31 31 31 30 30 30 30 30 31 31 32 32 32 32 31 31 31 31 31 30 30 30 30 30 31 32 32
9 10 11 11 12 12 12 13 13 13 13 13 13 14 14 13 13 12 12 12 13 14 15 14 14 14 16 16 16 17 18 17 15 14 14 16 17 19 20 20 21 22 24 26 27 26 26 26 25 24 23 22 21 22 23 25 27 28 30 30 30 30 30 30 30 30 31 32 32 32 32 32 31 31 30 30 30 30 30 30 30 30 31 32 33 32
10 10 11 11 11 12 12 12 12 12 12 12 13 13 12 12 11 11 11 13 13 14 13 13 13 13 14 15 17 18 18 16 14 14 16 17 17 17 19 20 21 22 23 25 27 27 26 24 22 21 21 21 21 23 24 26 27 28 28 29 29 29 29 29 30 31 31 32 33 33 32 31 31 30 30 30 30 30 30 31 31 32 32 33 32 31
10 11 11 11 11 11 11 11 11 11 11 12 12 12 11 10 10 10 11 13 13 13 13 13 13 14 15 16 18 18 17 14 13 15 18 18 17 18 20 20 21 21 22 24 27 27 25 22 19 18 19 21 22 24 25 26 27 27 27 27 28 28 29 29 30 31 32 32 32 32 31 31 30 30 30 30 30 30 30 31 32 33 33 32 31 30
11 11 11 11 11 11 11 10 10 10 11 11 11 11 10 9 9 10 11 12 13 13 13 14 14 15 16 16 16 14 13 13 14 16 19 18 17 18 20 20 20 21 21 20 19 18 21 23 21 18 19 21 23 24 25 25 25 26 26 27 27 28 29 29 30 31 32 32 31 30 30 30 30 30 30 30 29 29 29 30 31 32 32 31 30 29
12 11 11 11 11 10 10 10 10 10 10 11 10 10 9 9 9 10 11 11 12 12 13 14 14 15 15 14 10 7 8 14 17 18 19 18 18 19 20 20 21 21 20 17 10 7 13 19 23 23 22 22 23 24 24 24 24 25 25 26 26 27 29 30 31 31 31 30 30 29 29 30 31 31 31 30 29 28 28 29 30 31 31 30 29 27
12 11 11 11 11 11 10 10 10 10 10 10 10 10 10 10 10 10 11 11 11 12 13 14 14 15 15 14 10 9 11 17 19 20 20 19 19 20 20 20 20 21 20 18 15 11 8 11 20 27 26 25 24 24 24 24 23 23 24 25 26 27 29 30 30 29 29 29 29 29 29 30 31 32 31 30 28 27 27 28 30 30 30 29 28 27
12 11 11 11 11 11 10 10 10 10 11 11 10 10 10 10 10 11 11 11 12 12 13 14 15 15 16 16 15 15 17 18 19 20 19 19 19 19 20 20 21 21 21 20 20 18 14 15 21 27 28 27 25 24 23 23 22 22 23 24 26 27 28 29 28 27 27 27 28 28 29 31 32 32 31 28 26 26 28 29 29 29 29 28 27 26
11 11 11 11 11 11 11 11 11 11 11 11 11 11 11 11 11 11 12 12 12 13 13 14 14 15 16 16 17 17 18 19 19 20 19 19 19 19 20 20 20 21 21 20 20 20 20 21 22 24 25 27 26 24 22 22 22 22 23 23 24 26 27 27 27 27 27 27 26 27 28 30 32 31 29 27 26 28 30 30 29 28 27 27 26 26
11 11 11 11 11 11 11 11 11 11 11 11 11 11 12 12 12 12 13 13 13 13 14 14 15 15 16 16 17 18 19 20 21 21 20 20 19 19 20 20 20 20 20 20 20 20 19 21 23 23 23 25 26 25 22 21 21 22 23 23 23 24 25 26 26 26 26 26 26 26 27 30 31 30 27 27 29 32 33 32 30 28 27 26 26 26
11 11 11 11 11 11 11 11 11 11 12 12 12 12 12 13 13 13 14 14 14 14 15 15 16 16 17 17 18 19 21 22 22 22 21 21 20 19 19 19 20 20 20 20 20 20 19 21 23 24 23 22 22 24 24 23 23 23 23 23 23 24 24 25 25 25 25 26 26 26 28 29 29 28 27 29 32 35 35 33 31 28 27 27 27 26
11 11 11 11 11 11 11 12 12 12 12 12 13 13 13 14 14 14 15 15 15 15 16 16 17 17 17 18 19 21 22 23 23 23 22 22 21 20 19 19 20 20 19 20 20 21 21 20 22 23 22 20 20 21 24 26 26 25 24 24 24 24 24 24 24 24 24 25 25 26 27 28 28 27 27 30 33 35 36 34 31 29 28 28 28 27
11 11 11 11 11 11 12 12 12 13 13 13 14 14 15 15 15 16 16 16 16 16 17 17 17 18 19 19 20 21 23 23 24 24 23 22 22 21 20 19 20 20 19 19 20 20 20 19 16 15 17 20 22 23 25 26 26 26 25 25 24 23 23 22 23 23 23 24 25 26 27 27 27 27 27 29 31 33 34 34 32 30 29 29 29 29
11 11 11 11 12 12 12 12 13 13 14 14 15 15 16 16 16 16 16 16 16 16 17 17 18 19 20 21 21 21 21 22 23 23 23 23 22 22 21 20 20 20 20 20 20 20 20 19 17 16 17 19 22 25 26 25 25 26 26 27 25 23 22 21 22 23 23 24 25 26 27 27 26 26 26 27 29 30 31 31 31 30 30 30 30 29
11 11 12 12 12 12 13 13 14 14 15 16 16 16 16 16 15 15 16 16 16 16 17 18 18 19 20 20 20 20 20 21 21 21 21 22 23 23 22 21 20 20 21 21 21 20 20 20 20 21 21 21 22 24 25 25 25 25 26 25 24 23 23 23 23 23 23 22 23 25 26 26 26 26 26 27 27 28 28 29 29 29 28 28 27 27
11 12 12 13 13 13 13 14 14 15 15 16 16 16 15 15 15 16 16 16 17 17 17 17 18 19 20 20 20 19 19 19 19 20 21 22 23 23 23 22 22 22 21 21 21 20 20 21 21 22 23 23 24 24 25 25 25 25 25 23 23 24 25 24 23 22 22 22 23 24 25 26 26 26 27 27 27 27 27 27 27 27 27 26 25 26
11 12 12 13 13 14 14 15 15 15 15 15 15 15 15 15 15 16 17 17 17 17 17 18 18 19 20 21 21 20 19 18 18 19 20 21 22 22 22 22 21 21 21 21 21 21 21 21 22 22 23 23 23 23 23 25 25 24 23 23 24 26 26 24 22 21 21 23 24 24 25 25 25 26 27 27 27 26 27 26 26 25 25 24 24 24
12 12 13 13 14 14 14 15 15 15 14 14 14 14 15 15 15 16 17 17 18 18 18 18 18 19 19 20 21 20 20 19 19 19 19 19 20 20 21 21 21 21 20 20 21 22 23 22 22 22 22 22 22 23 23 24 25 24 23 23 23 23 21 22 23 23 23 24 24 24 24 24 25 27 28 28 27 26 25 25 24 24 24 23 23 23
12 12 13 13 14 14 14 14 14 14 14 15 15 15 15 15 15 16 16 17 17 18 18 18 18 19 19 19 20 21 21 21 20 20 19 19 19 19 20 20 20 20 20 20 20 21 23 23 22 22 22 22 22 22 23 23 23 23 23 23 22 21 20 22 24 25 25 24 24 24 24 25 26 27 28 27 26 24 24 24 24 24 24 23 23 23
12 13 13 13 14 14 14 14 14 14 14 15 15 15 15 15 16 16 16 16 17 18 18 18 18 18 18 18 19 20 21 22 22 21 20 20 19 19 19 19 19 20 20 20 21 21 21 22 22 23 23 22 22 22 22 23 23 23 23 23 22 22 23 24 24 24 24 24 24 24 25 25 26 27 27 26 25 24 23 23 23 24 24 24 23 22
12 13 13 13 14 14 14 14 14 15 15 15 15 15 15 15 15 16 16 16 17 18 18 17 17 17 17 19 20 20 21 22 22 22 22 21 21 20 20 19 19 19 20 20 21 22 22 22 22 24 24 23 23 22 22 22 22 22 23 23 23 23 23 23 23 23 23 24 24 25 26 27 27 26 25 25 25 24 23 22 21 22 23 23 23 22
12 13 13 14 14 14 14 14 15 15 15 15 15 16 16 16 16 16 17 17 17 17 18 18 17 17 18 19 19 20 20 21 22 23 23 23 22 21 21 20 20 20 20 21 21 22 22 23 24 24 23 23 22 22 22 22 21 21 22 23 23 23 23 23 23 23 23 23 24 25 26 26 26 25 25 25 25 25 23 22 21 21 21 22 22 22
13 13 13 14 14 14 14 15 15 15 15 16 16 16 16 16 17 17 17 17 17 17 17 17 17 18 19 19 20 20 20 21 22 23 23 23 23 22 22 22 22 22 22 22 22 22 21 22 22 22 22 21 21 21 21 22 22 22 22 23 23 23 23 23 23 23 23 23 23 24 25 25 24 24 25 25 25 25 24 23 22 21 20 20 21 22
12 13 13 14 14 14 15 15 15 15 16 16 17 17 17 17 17 17 17 17 17 17 17 17 18 18 19 20 20 21 21 22 22 23 23 23 23 23 23 23 23 23 23 23 22 21 21 21 20 19 18 18 19 20 21 22 22 22 23 23 23 23 23 23 23 23 23 23 24 24 24 24 23 23 23 23 24 25 25 25 24 22 20 20 20 22
12 13 13 13 13 14 14 15 15 15 16 16 17 17 18 18 17 17 16 16 16 16 17 17 18 18 19 20 21 21 21 22 22 23 23 23 23 23 23 24 24 24 24 23 22 21 20 19 19 17 16 16 17 18 20 21 22 23 23 22 22 22 22 23 23 23 23 23 24 25 25 24 23 22 22 21 22 24 25 25 25 23 21 20 21 22
13 13 13 13 13 14 14 15 15 15 16 16 17 17 18 17 17 17 17 16 16 16 17 18 18 18 19 20 21 22 22 21 22 22 23 23 23 23 24 23 23 23 23 22 21 20 19 17 16 17 18 16 15 16 18 20 22 22 22 23 22 22 22 22 23 24 24 24 24 24 24 23 23 22 21 20 21 22 23 24 25 25 24 22 22 23
Wind_Direction
334 334 335 339 339 338 338 342 344 343 343 342 342 341 341 340 340 339 340 341 341 341 339 337 336 335 335 335 335 336 337 339 341 342 342 341 339 338 335 332 328 326 325 326 327 328 328 327 326 325 324 324 323 322 322 322 321 317 310 303 296 289 284 279 274 269 266 264 264 263 264 265 265 265 264 263 262 260 259 257 255 253 251 249 247 244
334 334 335 338 340 339 337 340 344 344 343 341 340 340 339 339 338 339 340 340 340 340 338 336 335 334 333 334 334 334 335 336 338 340 341 341 339 336 333 331 328 327 327 329 331 332 330 329 328 326 325 325 325 325 326 327 326 321 314 308 303 298 292 286 279 273 268 265 262 261 260 260 261 261 261 261 260 259 258 256 255 254 254 253 250 247
335 335 336 338 339 339 337 338 341 342 341 340 339 338 338 338 338 338 339 338 338 338 337 336 335 333 333 333 333 333 334 336 337 338 339 339 336 333 332 330 328 328 330 331 333 333 332 331 329 328 326 326 327 328 331 332 328 322 316 311 308 306 302 295 286 278 271 267 263 261 259 258 257 257 258 258 258 258 258 257 256 256 255 255 254 252
336 335 335 336 337 337 335 336 337 338 339 338 337 337 338 337 337 337 337 336 336 336 336 336 334 333 332 332 332 333 334 336 337 338 337 336 333 331 330 329 328 329 330 331 332 332 331 331 330 329 327 327 328 330 333 332 328 322 316 312 310 309 309 305 297 286 277 270 265 262 260 258 257 256 255 256 256 257 257 257 257 257 257 257 257 256
336 335 334 334 334 333 333 333 335 336 337 336 336 337 337 337 336 335 335 336 335 335 335 334 333 332 331 330 330 331 333 335 336 336 336 334 332 330 329 328 328 328 329 330 330 330 330 330 330 330 329 329 329 330 330 328 325 321 318 314 313 313 314 313 309 300 287 276 268 263 261 259 257 256 255 255 255 255 256 257 257 258 258 258 258 257
333 333 333 333 331 330 330 331 335 337 338 337 336 336 336 335 335 335 335 335 335 334 333 332 331 330 329 328 329 331 332 334 335 334 333 332 331 330 329 328 328 328 329 329 329 329 330 330 330 330 330 330 330 328 326 324 323 322 321 320 318 317 317 318 319 316 307 292 277 267 261 258 256 256 255 255 255 255 255 256 257 257 258 258 257 255
330 331 333 332 331 329 328 330 335 339 340 338 336 335 335 335 335 336 335 334 333 332 331 330 329 329 328 328 329 331 332 333 333 332 332 331 330 330 329 329 328 328 328 328 328 328 329 329 330 329 329 329 328 327 325 324 324 324 324 324 323 320 319 318 320 322 322 316 302 283 268 259 255 254 254 254 255 255 255 256 256 257 257 257 256 254
329 331 332 332 331 330 329 331 336 341 341 338 336 335 335 336 336 335 334 333 333 333 331 330 329 329 328 329 330 331 331 331 331 331 331 330 330 330 329 328 328 328 327 327 327 327 327 328 328 327 327 327 327 326 326 326 326 326 325 324 323 321 318 317 318 321 324 325 322 312 294 275 262 255 253 252 252 253 254 255 256 257 257 257 256 255
330 330 331 332 331 330 330 331 336 340 341 339 337 336 336 336 335 334 334 334 334 334 333 331 330 328 328 328 329 330 329 328 328 328 329 329 329 329 328 328 327 327 327 326 326 325 325 326 326 326 326 326 326 325 326 326 327 326 325 324 322 320 318 316 316 318 322 326 328 325 318 304 286 270 260 254 251 250 251 252 254 256 257 257 256 255
331 330 330 331 331 330 330 331 333 337 339 338 337 336 337 338 336 335 334 333 334 334 334 332 330 328 327 328 328 328 327 326 327 327 328 328 327 327 327 327 326 325 325 325 324 324 323 324 324 325 326 325 325 324 325 325 326 326 325 323 322 321 319 317 315 315 319 325 328 327 324 318 308 294 279 267 259 253 249 248 250 253 256 257 257 255
332 332 330 330 330 331 331 330 332 335 338 338 337 338 340 341 339 335 332 331 332 332 333 331 329 327 326 326 327 327 327 327 327 328 328 327 327 327 327 327 326 325 324 324 323 323 323 324 324 325 324 324 324 324 324 324 324 325 324 323 322 322 320 317 315 315 319 324 326 325 321 318 314 309 300 289 278 266 256 249 247 247 250 253 255 256
333 332 331 330 330 331 332 333 334 337 340 341 341 341 340 340 338 334 329 327 328 329 330 328 327 325 324 324 324 325 327 327 327 327 328 328 329 329 329 328 327 326 325 325 324 324 324 325 324 324 324 323 323 323 323 323 323 323 322 322 323 323 321 319 317 317 322 325 325 322 318 314 313 312 311 307 299 288 275 262 252 247 246 247 251 253
333 332 330 330 330 333 335 336 338 341 344 345 343 340 336 334 333 331 326 323 324 326 326 326 324 323 322 322 323 325 326 326 326 326 327 327 328 329 328 327 326 326 326 325 324 324 325 325 324 324 323 322 322 322 322 321 321 321 322 322 323 323 322 321 320 322 325 326 324 320 316 312 311 311 313 313 311 306 296 282 268 257 249 247 247 249
332 332 331 331 332 334 337 339 340 341 342 341 338 333 329 328 328 327 324 322 322 323 324 323 321 320 321 322 324 325 326 326 326 326 325 325 326 326 326 325 323 323 324 323 322 322 324 324 324 323 322 321 321 321 321 320 321 321 322 323 323 323 323 322 323 324 325 324 321 318 315 313 311 310 311 312 313 312 309 300 288 274 262 254 249 248
331 331 330 330 332 335 337 338 337 336 334 332 330 327 324 324 325 325 323 321 321 322 322 321 319 319 319 321 324 327 328 328 327 326 324 322 322 324 324 323 321 321 321 320 320 320 322 322 322 320 320 319 319 319 319 320 321 322 323 323 323 322 322 322 323 323 323 321 319 317 315 314 313 311 310 310 310 311 311 308 302 292 280 268 259 253
328 328 328 328 330 332 334 334 332 329 327 325 325 324 324 323 323 323 321 320 320 322 322 321 320 319 318 319 324 329 331 329 327 325 323 320 320 322 323 321 320 319 319 318 318 319 320 320 319 318 317 317 317 317 318 320 321 322 323 323 323 323 322 322 321 321 320 320 318 317 316 315 314 313 312 310 310 309 309 309 307 302 294 283 272 263
326 328 328 329 329 329 330 329 327 325 323 323 324 324 324 323 322 323 323 323 323 323 323 322 321 319 318 319 322 329 332 330 326 323 320 317 317 320 322 320 318 317 316 317 317 317 318 317 316 315 315 315 315 316 318 320 321 321 322 322 323 322 322 321 320 320 320 319 318 317 317 316 316 315 314 313 311 310 309 308 307 306 302 294 284 274
328 330 332 331 329 328 329 329 328 327 327 328 328 327 327 326 325 325 325 326 325 324 323 322 319 317 317 317 319 324 329 327 323 319 317 314 314 317 320 319 316 315 315 315 316 316 315 314 313 312 312 313 314 316 318 319 320 321 322 322 322 322 321 321 320 320 320 320 319 318 317 316 316 316 315 314 313 310 308 307 306 306 305 301 294 284
330 333 335 334 331 329 330 331 333 333 333 332 331 329 328 327 327 327 326 325 324 323 321 319 317 315 313 312 315 320 325 323 319 316 313 311 312 315 318 318 316 314 314 314 315 315 314 312 311 311 311 312 313 315 316 318 319 320 320 321 321 321 321 321 320 320 320 319 318 317 316 316 316 316 315 314 313 311 308 307 306 306 305 304 299 292
330 334 337 335 332 330 330 331 332 333 332 331 330 328 326 326 326 326 325 323 322 320 318 315 314 313 312 311 313 317 321 321 318 313 310 309 310 313 317 318 317 315 314 313 314 314 313 312 311 311 311 312 313 314 315 316 317 318 319 319 320 320 320 320 319 319 318 318 317 316 316 315 315 314 314 314 313 311 310 308 307 306 306 305 303 297
331 331 334 334 332 328 326 326 328 329 329 329 329 327 325 324 324 323 323 321 320 318 317 314 312 311 311 310 311 314 318 318 316 313 311 310 310 312 317 318 317 316 314 312 313 313 313 312 311 311 310 311 312 313 314 314 315 315 316 317 318 318 318 318 318 319 319 318 317 315 314 314 314 313 313 313 313 313 312 311 310 308 307 306 304 301
327 326 327 329 328 324 320 321 323 325 327 328 328 327 324 324 323 321 320 320 318 316 314 311 309 308 308 306 307 311 315 316 315 314 313 310 309 311 317 319 318 315 313 312 313 314 313 312 311 310 309 310 310 311 312 312 312 313 315 316 316 317 317 318 319 320 319 318 316 315 314 313 313 313 313 313 314 315 314 313 311 309 308 307 305 303
324 322 323 324 324 321 319 320 322 324 326 327 326 324 321 320 319 317 316 315 313 311 310 308 307 307 306 306 308 312 316 317 317 316 313 308 307 310 317 320 319 315 312 312 313 314 313 312 310 309 309 309 310 310 311 311 313 314 315 316 316 316 317 318 318 319 318 317 316 315 314 313 313 313 313 313 314 315 315 313 312 310 309 308 307 305
324 321 321 321 321 321 321 321 322 324 325 325 324 321 319 318 315 313 311 309 309 310 310 311 311 311 311 312 314 316 319 321 321 318 312 306 306 310 317 320 318 315 312 312 313 313 313 311 310 309 309 308 309 310 311 312 314 315 316 315 315 315 316 316 317 317 317 317 316 315 314 314 313 313 313 313 314 314 314 314 313 311 310 310 310 308
324 322 320 319 319 320 320 320 322 323 325 325 325 323 322 320 317 314 312 312 314 317 318 317 316 316 317 319 319 320 322 324 323 319 313 308 308 312 316 319 318 314 312 312 313 313 312 310 310 309 309 309 309 311 313 315 316 316 316 315 315 315 315 315 316 316 316 316 316 315 315 314 313 313 312 313 313 315 315 316 315 315 314 313 313 312
322 319 318 317 317 318 319 320 321 323 325 326 327 327 327 325 323 322 322 324 326 326 324 322 319 318 320 321 321 322 323 323 322 320 317 315 314 314 316 319 318 315 313 313 313 313 312 310 309 309 309 310 311 313 315 317 317 316 315 314 314 314 315 315 315 316 316 316 316 315 315 314 314 313 312 313 314 316 318 319 320 319 318 317 317 316
321 319 318 317 317 319 320 321 323 324 327 329 330 331 330 329 328 328 329 330 331 330 327 323 321 321 322 323 322 321 322 322 322 323 325 323 318 315 315 318 319 317 315 313 312 312 310 308 308 308 309 311 314 316 317 317 317 316 314 314 314 314 315 315 315 315 316 316 316 316 315 315 314 314 313 314 316 319 322 324 324 324 322 321 319 317
322 320 319 319 319 319 320 321 322 324 327 329 331 333 333 332 331 329 328 329 329 328 326 323 322 321 322 321 319 319 319 320 323 328 332 328 319 314 315 318 320 319 317 314 313 311 309 307 306 308 310 313 315 317 317 317 317 316 315 315 315 315 315 315 315 315 316 316 316 316 316 316 315 314 314 314 317 321 324 326 326 326 324 321 318 315
324 322 321 320 319 319 320 320 321 323 325 328 331 333 334 333 329 325 323 326 327 326 323 321 320 320 319 318 317 317 318 320 326 332 334 328 319 313 316 318 320 321 320 317 316 315 311 309 308 311 313 315 317 318 318 318 318 317 317 317 317 317 317 317 317 317 317 317 317 317 317 317 316 315 314 315 317 320 324 326 326 325 324 321 318 315
326 325 324 322 321 321 321 321 321 322 324 326 328 330 331 330 325 321 320 322 324 323 320 319 319 319 319 319 319 319 319 321 327 332 333 326 319 316 318 319 320 321 322 322 320 317 314 312 312 313 315 317 317 317 318 318 318 319 319 319 319 319 319 319 319 318 318 318 318 318 318 318 317 317 316 316 317 319 322 324 325 325 324 321 319 317
326 325 323 323 323 322 322 321 321 322 324 325 326 327 327 326 323 320 320 320 319 318 316 316 316 317 318 319 320 318 315 318 323 328 330 324 318 315 318 318 318 319 321 322 320 315 313 313 314 315 317 317 317 316 317 318 318 319 320 320 320 320 320 320 320 320 320 319 319 320 320 320 319 318 318 317 317 319 322 324 326 326 325 322 320 318
324 323 321 321 321 322 321 321 322 323 324 324 325 325 323 322 320 319 318 317 315 313 311 310 311 312 313 312 309 304 305 311 317 323 326 321 316 315 316 316 316 317 317 316 311 306 306 308 311 313 315 316 316 316 316 317 318 319 320 321 320 320 320 320 321 321 320 320 321 321 321 322 322 322 321 320 320 322 325 327 328 327 326 323 320 319
321 320 320 320 320 320 320 321 321 322 323 323 322 322 321 320 318 316 315 313 312 310 308 307 308 309 309 307 304 302 302 306 312 318 321 318 315 314 315 315 315 315 316 314 309 304 299 300 305 310 312 313 314 315 315 316 317 319 320 321 320 319 320 321 321 321 320 320 320 321 322 324 326 327 327 326 326 328 329 329 329 329 326 324 322 321
320 320 320 320 320 320 320 320 321 321 321 321 321 320 320 319 318 316 313 311 310 308 306 305 304 304 306 307 305 303 303 306 310 315 317 315 312 312 314 314 315 315 316 314 312 308 303 302 304 308 310 311 312 313 314 315 317 318 319 319 318 318 318 319 320 320 319 319 319 320 322 325 327 329 330 332 333 333 332 332 332 332 329 326 324 323
320 320 320 320 320 319 319 319 320 320 320 320 319 319 319 318 317 315 313 310 308 306 305 303 300 299 299 301 301 302 303 305 309 312 313 311 309 309 311 312 314 315 314 313 312 311 308 306 306 307 309 310 311 312 313 315 316 317 317 317 316 316 316 317 317 318 318 317 318 318 320 323 326 329 330 332 332 332 332 334 335 335 333 330 327 325
319 319 319 319 319 318 318 318 318 319 318 318 318 318 318 317 316 314 313 310 308 306 303 301 299 296 293 293 294 295 297 301 305 308 308 307 306 305 307 308 310 311 310 310 310 310 309 308 307 308 308 308 309 311 313 315 316 316 315 315 315 315 315 314 315 316 317 317 317 318 319 322 324 327 328 327 327 329 331 334 336 336 336 334 331 328
317 317 317 317 317 317 316 317 317 317 317 317 316 316 316 314 313 312 311 310 308 306 304 303 299 296 294 291 291 292 295 297 300 302 304 304 303 302 301 302 305 306 305 306 307 308 308 308 308 309 308 307 308 310 313 315 316 316 315 315 315 315 314 314 315 315 316 316 317 318 320 322 323 324 324 325 326 328 331 334 336 336 336 335 334 332
316 315 315 316 317 317 316 316 316 315 315 314 314 313 312 311 311 310 309 309 308 307 305 304 302 300 299 296 294 293 296 295 296 298 301 302 301 299 297 297 300 301 300 300 302 303 305 306 307 309 309 308 307 308 310 313 315 315 314 314 314 313 313 314 315 316 316 316 317 319 321 322 323 323 323 324 326 329 331 333 334 335 336 335 333 332
315 314 315 315 316 316 315 314 313 312 312 311 310 309 308 308 308 308 308 308 308 308 307 306 305 304 303 301 299 298 297 296 297 297 298 299 299 297 294 294 295 297 298 299 299 299 300 301 302 304 306 307 308 308 309 310 311 312 313 314 314 313 313 314 316 316 316 317 319 320 322 322 322 323 323 324 326 327 328 329 330 332 333 332 330 329
314 313 313 314 314 313 312 310 310 310 310 309 308 307 307 307 308 308 309 310 309 309 309 309 308 307 306 305 304 303 300 299 298 299 299 300 300 298 295 292 291 294 298 300 300 299 298 298 299 300 302 303 304 306 307 308 309 310 312 313 313 313 314 314 315 315 315 317 319 320 321 322 322 322 323 323 323 324 324 324 325 327 329 328 326 326
313 313 313 313 313 312 310 309 308 308 308 308 309 309 309 309 310 311 311 312 312 312 312 313 313 312 311 310 308 307 304 302 301 301 301 303 303 301 298 294 292 294 298 299 299 299 298 298 298 299 300 301 302 303 304 305 306 308 309 309 308 309 310 312 312 313 315 317 319 320 320 321 322 322 322 322 321 320 320 320 320 322 325 324 324 323
312 312 312 312 311 311 310 309 309 309 309 309 309 309 310 310 311 312 313 313 313 314 315 316 316 316 315 314 313 312 310 307 306 305 304 304 304 303 301 297 294 293 295 297 298 299 299 299 298 298 299 300 301 301 302 303 305 306 306 305 306 308 310 312 314 316 317 318 319 320 320 321 322 322 321 320 318 317 317 318 318 319 320 321 322 322
311 311 310 310 310 310 310 310 311 311 311 311 310 310 310 311 311 312 312 311 312 313 314 316 316 315 313 313 313 314 314 312 310 308 307 306 305 304 302 299 296 295 294 294 296 299 301 300 298 296 297 297 298 299 300 302 303 304 304 304 306 309 311 313 315 317 318 318 319 319 320 321 321 320 319 317 316 315 316 316 317 318 320 321 321 321
310 309 310 310 310 311 312 312 312 313 313 312 311 310 311 311 312 311 311 310 310 312 313 315 315 314 312 311 312 314 315 315 314 313 311 309 308 306 304 302 300 299 296 295 295 297 300 301 299 298 297 297 296 296 297 299 301 302 303 304 305 306 305 308 312 315 316 317 318 319 320 321 320 319 318 316 315 315 315 316 317 318 320 321 320 320
309 310 311 312 313 313 313 313 313 313 312 311 311 311 312 312 313 312 310 310 311 312 312 314 314 314 311 311 312 313 314 315 316 315 314 314 313 310 307 304 303 301 299 296 294 295 296 297 298 299 299 298 296 295 295 296 298 300 302 304 306 305 305 306 309 313 315 316 317 318 319 321 321 320 318 316 315 314 314 314 314 316 318 319 319 319
311 312 312 313 313 313 312 313 313 313 312 312 312 312 313 314 314 312 311 310 310 311 311 312 312 310 309 309 311 312 313 314 315 316 316 316 315 315 312 309 305 303 302 299 297 295 294 293 295 298 300 299 297 295 293 294 296 299 302 305 307 308 308 309 311 312 314 315 316 317 319 321 321 319 317 315 314 313 312 312 312 313 314 316 316 317
312 312 312 313 312 312 312 313 314 313 313 312 312 313 314 314 315 314 313 312 311 310 311 311 310 308 307 308 310 311 312 312 313 314 315 316 316 315 315 313 310 307 304 302 300 297 293 292 294 295 295 296 295 295 295 295 297 299 302 305 307 308 309 310 311 312 313 314 315 316 319 321 320 318 316 315 313 312 312 311 311 311 312 313 314 315
311 311 311 311 311 311 312 313 314 314 313 313 313 313 314 315 315 315 313 313 312 311 311 311 310 308 308 309 309 310 309 310 311 312 314 315 315 315 315 315 314 312 309 307 304 300 297 295 292 290 289 289 290 292 294 296 298 300 302 304 307 308 308 309 310 312 313 313 314 315 317 318 318 316 315 313 312 311 311 311 312 312 312 312 313 314
309 309 309 310 310 311 312 313 314 313 313 313 313 313 314 314 314 313 312 312 311 311 311 311 310 309 308 309 310 310 310 310 311 312 314 315 315 316 316 316 315 314 313 310 308 306 303 301 297 292 288 285 286 290 293 297 299 301 302 304 306 307 307 308 309 311 313 313 314 314 315 315 314 312 312 310 310 309 310 311 311 312 312 312 313 313
308 308 309 309 309 309 310 312 312 312 312 312 313 313 313 313 313 313 312 311 310 310 309 309 309 308 308 309 310 311 312 311 312 313 314 315 315 316 316 316 315 315 315 313 312 311 310 308 306 304 299 294 291 291 295 298 300 302 303 304 304 306 306 307 308 310 312 313 313 313 313 313 312 311 310 309 308 308 309 310 310 311 312 313 313 312
308 308 308 308 309 309 310 311 311 311 311 311 312 312 312 312 312 312 313 312 311 310 310 310 309 307 307 308 310 311 312 312 312 313 314 315 315 315 315 315 315 315 315 315 315 316 315 314 313 312 312 309 305 300 299 300 302 303 303 303 304 305 306 306 307 309 311 311 312 312 312 311 311 311 310 309 309 309 309 309 310 311 312 313 313 312
Height
798 797 796 795 793 793 791 790 789 788 787 786 785 783 782 781 780 779 778 777 776 774 773 772 770 769 768 767 765 764 763 762 760 759 757 756 755 754 753 753 752 751 749 748 746 745 744 743 742 742 741 740 739 738 736 735 734 733 731 730 729 729 728 728 728 728 728 728 728 729 729 729 729 730 730 731 731 732 732 733 734 735 735 736 737 738
798 797 796 795 794 793 792 791 790 789 788 786 785 784 783 781 780 779 778 777 776 774 773 771 770 768 767 766 765 764 763 761 760 758 757 756 755 754 753 752 751 750 748 747 746 744 743 742 741 741 740 738 738 736 735 734 732 731 729 728 727 727 726 726 726 725 725 725 725 725 726 726 727 727 727 728 728 729 729 730 731 731 732 733 734 734
798 797 796 795 794 793 792 791 790 789 788 787 785 784 783 781 780 779 778 776 775 774 773 771 770 768 767 766 764 763 762 760 759 758 756 755 754 753 753 752 750 749 748 746 745 743 742 741 740 739 738 737 736 735 733 732 731 729 727 726 726 725 725 724 723 723 723 722 722 722 723 723 723 723 724 724 725 726 727 727 728 728 729 729 730 731
799 798 797 795 794 793 793 791 790 789 788 787 786 784 783 782 780 779 778 777 775 773 772 771 769 768 767 765 764 762 761 759 758 757 756 755 754 753 752 751 750 748 747 745 744 743 741 740 739 738 737 736 734 733 732 731 729 728 726 725 724 724 723 722 722 721 720 719 719 719 719 719 720 720 721 721 722 723 723 724 724 725 725 726 727 728
800 799 797 796 795 793 793 792 791 789 788 787 786 784 783 782 781 779 778 776 775 773 772 770 769 768 766 765 763 762 760 759 758 756 755 754 754 753 752 750 749 747 746 744 743 742 740 739 738 737 735 734 733 732 731 730 728 727 725 724 723 723 722 721 720 719 718 717 716 716 716 716 717 717 718 718 718 719 720 720 721 721 722 722 723 724
800 799 798 797 796 794 793 792 791 789 788 787 786 784 783 782 781 779 778 776 775 773 772 770 769 768 766 765 763 761 759 758 757 756 755 754 753 752 751 749 748 746 745 743 742 741 739 738 737 736 734 733 732 731 730 729 728 726 724 723 723 722 721 720 719 718 716 715 714 713 713 713 713 714 714 715 715 716 716 717 718 718 719 719 720 721
800 799 798 797 796 795 793 792 791 790 789 787 785 784 783 782 781 780 778 777 775 773 772 770 769 767 766 764 763 761 759 758 756 755 754 753 753 751 750 748 747 745 744 743 741 740 739 738 736 735 734 733 731 730 729 728 726 725 724 723 722 720 719 718 717 716 715 713 712 711 710 710 710 711 711 711 712 712 713 713 714 715 716 716 717 718
800 799 798 797 796 794 793 792 791 790 789 788 786 784 783 782 781 779 778 777 775 773 772 770 768 767 765 764 762 760 759 758 756 755 754 753 752 750 749 747 746 744 743 742 740 739 738 737 736 734 733 732 731 730 728 727 726 724 723 722 720 719 718 716 715 714 713 712 710 709 708 708 707 707 708 708 708 709 709 710 711 711 712 713 713 714
801 799 798 797 796 795 793 792 791 791 790 788 787 785 783 782 780 779 778 776 775 774 772 770 768 766 765 763 762 760 759 758 757 755 754 753 751 749 748 746 745 743 742 741 739 738 737 736 735 734 733 732 730 729 728 726 725 723 722 720 719 718 717 715 713 712 711 710 708 708 707 705 705 704 704 704 704 705 705 706 707 708 708 709 710 711
801 800 798 797 796 795 794 792 791 791 790 789 788 787 785 783 781 779 777 776 775 774 773 771 769 766 764 763 762 760 759 758 756 755 754 753 751 749 748 746 744 743 741 740 738 737 736 735 734 733 732 731 729 728 727 725 724 723 721 719 718 717 715 714 713 711 710 708 707 706 705 704 703 702 702 702 702 701 701 702 703 704 705 706 707 707
801 800 798 797 796 795 794 793 792 791 790 789 788 787 786 785 783 781 778 776 775 774 773 771 770 768 765 763 761 760 759 757 756 754 753 752 750 748 747 745 744 742 740 739 738 737 735 734 733 732 731 729 728 727 726 724 723 721 720 718 717 715 714 713 711 710 709 707 706 705 704 703 702 700 700 699 699 699 698 698 698 699 701 702 703 703
801 800 799 798 796 795 794 793 792 791 790 789 788 787 786 785 785 783 781 778 776 774 773 771 770 769 767 764 762 760 759 757 756 754 752 751 749 748 746 744 743 741 739 738 737 736 735 733 732 731 729 728 727 726 724 723 721 720 718 717 715 714 712 711 710 708 707 706 705 704 703 701 700 699 698 698 697 697 696 695 695 695 696 697 698 699
802 800 799 798 797 796 795 793 793 792 791 790 789 788 787 786 785 784 783 780 778 776 774 772 770 768 767 766 763 761 759 758 756 754 753 751 749 748 746 744 742 741 739 737 736 735 734 732 731 730 728 727 726 724 723 721 719 718 716 715 713 712 711 709 708 707 706 705 703 703 701 700 698 697 696 696 695 694 694 693 693 692 692 693 693 695
802 801 800 798 797 796 795 795 794 793 792 792 791 791 789 787 786 784 782 780 778 777 775 773 771 768 767 765 764 763 761 758 756 754 753 751 750 748 747 744 743 741 739 738 736 734 733 732 730 728 727 726 724 723 721 719 718 716 715 713 712 710 709 708 707 706 705 703 702 701 699 698 697 696 695 694 693 692 692 691 690 689 689 689 690 690
803 802 800 799 798 797 797 796 795 794 794 793 792 791 789 788 786 784 782 780 778 776 775 773 771 769 767 766 764 763 761 759 757 755 753 751 750 748 747 745 743 741 739 738 736 734 733 731 730 728 726 725 723 722 720 718 716 715 713 712 711 709 708 707 706 705 703 703 701 699 698 697 696 694 693 692 691 690 690 689 688 687 686 686 686 687
803 802 801 800 799 798 798 797 797 796 794 793 792 791 789 787 786 784 782 780 778 776 775 773 770 768 766 765 765 764 762 760 758 756 753 751 749 748 747 745 742 740 739 737 735 734 732 731 729 728 726 724 722 721 719 717 715 714 713 711 710 708 707 706 705 703 703 701 699 698 697 695 694 693 692 691 690 689 688 687 686 685 684 683 683 683
804 803 802 801 800 799 798 798 797 796 795 793 792 791 789 788 786 784 783 781 779 777 775 774 771 768 765 764 764 764 763 761 759 757 755 751 749 748 747 745 743 740 738 737 735 734 732 730 729 727 725 723 722 720 718 716 715 713 712 710 709 708 706 705 704 703 701 699 698 697 695 694 693 692 691 689 688 688 687 686 684 683 682 681 681 680
804 803 803 802 801 800 799 798 797 796 794 793 791 790 789 788 786 785 783 782 780 778 776 774 773 771 768 765 763 763 764 762 760 757 755 752 749 748 747 745 743 740 738 737 735 733 732 730 728 726 724 723 721 719 717 716 714 713 711 709 708 707 705 704 703 701 700 698 697 695 694 693 692 691 689 688 687 686 685 684 683 681 680 679 678 678
805 804 803 802 801 800 799 798 797 796 794 793 792 790 788 788 786 785 784 783 781 779 778 776 774 772 770 767 765 764 764 763 760 758 755 752 749 748 747 745 743 740 738 736 734 733 731 729 727 725 723 722 720 718 717 715 713 712 710 709 708 706 704 703 702 700 698 697 696 694 693 692 690 689 688 687 685 684 683 682 680 679 678 677 676 675
805 804 803 802 801 800 799 798 797 796 795 794 793 791 789 788 787 785 784 783 782 780 778 777 774 772 770 768 766 764 764 763 761 758 755 752 749 748 747 745 743 740 738 736 734 733 731 728 726 724 722 721 719 718 716 714 713 711 710 708 707 705 704 702 700 699 697 696 694 693 691 690 689 688 686 685 683 682 681 680 678 677 676 674 673 672
805 804 803 803 802 801 799 798 798 797 796 794 793 792 790 788 787 786 784 783 782 780 778 777 775 773 771 769 767 765 764 763 761 758 755 752 749 748 747 745 743 740 738 735 733 732 730 728 726 723 721 720 718 717 715 713 712 710 709 708 706 704 703 701 699 697 696 694 693 691 690 689 688 686 684 683 682 680 679 678 676 674 673 672 670 669
805 804 803 803 802 801 800 799 798 797 796 795 793 792 791 789 788 786 785 783 782 780 778 777 775 773 772 769 767 766 765 763 762 759 756 753 749 747 747 745 743 741 738 735 733 731 729 727 725 723 721 719 717 716 714 713 711 710 708 707 705 703 701 699 698 696 694 693 691 690 689 688 686 684 683 681 680 678 677 675 673 672 670 669 668 666
805 804 803 802 802 801 800 799 798 797 796 795 794 793 792 790 789 787 785 784 783 781 779 777 775 773 771 769 767 766 765 763 762 760 758 754 750 747 747 746 743 741 738 735 733 730 728 726 724 722 719 718 716 714 713 712 711 709 708 706 704 702 700 698 696 695 693 692 690 688 687 686 684 683 681 679 678 676 674 673 671 669 668 666 664 663
804 804 803 802 801 800 800 798 798 796 795 794 793 793 791 790 789 788 786 784 783 781 779 777 774 772 770 768 767 766 764 763 762 760 758 754 751 748 747 746 744 741 738 735 733 730 728 725 723 721 719 717 715 714 713 711 710 708 707 705 703 701 699 697 695 694 692 691 689 687 686 684 683 681 679 678 676 674 672 670 668 667 665 663 661 659
804 803 803 802 801 800 799 798 798 796 795 794 793 792 791 789 788 787 785 784 783 781 779 777 774 772 770 768 767 765 764 763 762 760 758 755 752 749 748 747 745 741 738 734 732 730 727 724 722 719 718 716 714 713 712 711 709 708 705 703 701 699 698 696 694 693 691 689 688 686 684 682 681 679 677 676 674 672 670 668 666 664 662 660 658 656
803 803 802 801 800 800 799 798 797 796 795 794 793 792 790 789 788 786 785 783 782 781 779 777 774 772 770 768 767 765 764 763 762 760 758 756 753 750 748 747 745 742 738 734 732 730 727 724 721 719 717 715 713 712 711 710 708 706 704 702 700 698 696 694 693 691 689 688 686 684 682 680 679 677 675 674 672 670 668 666 664 662 660 658 655 653
803 802 801 800 800 799 798 797 796 795 794 793 793 791 790 788 787 786 785 783 783 781 779 777 775 772 770 769 767 766 764 763 762 760 759 757 754 751 749 747 746 743 739 735 732 729 727 724 721 718 716 715 713 712 710 709 707 705 703 701 699 697 695 693 692 690 688 686 684 682 680 679 677 675 674 672 670 668 666 664 662 660 658 656 653 650
802 801 800 800 799 798 797 796 795 795 794 793 792 791 790 789 788 786 785 784 783 782 780 778 776 773 771 769 768 766 764 763 762 760 759 758 755 752 749 748 746 743 740 735 731 728 726 723 721 718 716 714 713 711 709 708 706 704 701 699 698 696 694 692 690 688 687 684 683 681 679 677 675 674 672 670 668 666 664 662 660 658 656 654 652 649
802 801 800 799 798 797 797 796 795 794 793 792 791 790 789 789 788 787 785 784 783 782 780 779 777 775 773 770 768 766 764 763 762 761 759 758 755 752 750 748 746 744 741 736 731 726 723 722 720 718 716 714 713 711 709 707 705 703 700 698 697 695 693 691 689 687 685 683 681 679 677 676 674 672 670 668 667 665 663 661 659 657 655 653 650 648
801 800 799 798 798 797 796 795 794 793 793 792 791 790 789 788 788 787 785 784 783 782 780 779 777 775 773 771 768 765 763 763 762 761 760 758 755 752 750 748 747 745 743 739 733 726 721 718 718 718 717 715 713 711 708 707 704 702 700 698 695 693 692 690 688 686 683 681 679 678 676 674 673 671 668 667 665 663 662 660 658 656 654 652 649 647
801 800 799 798 797 796 796 795 794 793 792 791 790 789 789 788 787 786 785 784 783 782 781 779 777 776 774 772 769 766 763 762 762 761 760 758 756 753 751 749 747 745 744 742 738 732 723 717 715 715 716 714 713 710 708 707 705 703 700 698 695 693 691 689 687 684 682 680 678 677 675 673 671 669 667 665 663 662 661 659 657 655 653 651 648 646
800 799 798 798 797 796 795 794 793 793 792 791 790 789 788 787 787 786 785 784 783 782 780 779 777 776 774 773 771 768 765 763 762 761 761 759 756 753 752 750 747 745 744 743 742 738 731 723 716 713 714 713 712 710 708 707 705 703 700 698 695 693 690 688 686 683 681 679 677 675 673 672 669 668 665 663 662 661 660 658 656 654 653 650 648 646
800 799 798 798 797 796 795 794 793 792 791 790 789 788 788 787 786 785 784 783 782 781 780 778 777 775 774 773 771 769 766 764 762 761 761 759 756 753 751 750 748 745 743 742 741 738 735 728 722 717 713 712 711 710 708 706 704 703 701 699 696 693 690 688 686 683 681 679 677 674 672 670 668 666 664 663 662 660 659 657 655 653 652 650 648 645
800 799 798 797 796 795 795 794 793 792 791 790 789 788 787 786 785 784 783 783 782 781 779 778 777 775 773 771 769 767 765 763 762 761 760 759 757 754 751 750 748 745 743 741 738 736 733 730 725 721 716 712 710 709 708 706 704 703 701 699 697 694 691 688 686 683 681 679 677 674 672 670 668 665 664 663 661 659 658 655 653 652 651 649 647 645
799 798 798 797 796 795 794 793 793 792 791 790 789 788 787 786 785 784 783 782 781 780 779 778 776 775 773 771 769 767 764 762 761 761 760 758 756 754 752 749 748 746 743 741 738 735 732 729 726 723 719 713 709 708 707 706 704 703 701 699 697 695 692 689 687 684 681 679 677 674 672 670 668 665 664 662 660 658 656 654 652 650 649 648 647 645
799 798 798 797 796 795 794 793 792 791 790 789 788 787 786 785 784 783 782 781 780 779 778 776 775 774 773 771 769 767 764 762 760 760 759 758 756 754 752 749 748 746 744 741 738 736 733 729 725 723 720 716 711 707 705 704 704 702 700 698 696 694 692 689 687 685 682 679 677 674 672 670 668 666 663 661 659 657 655 653 651 649 648 646 645 644
799 798 797 796 796 794 793 793 792 791 790 788 788 787 786 784 783 782 781 780 779 778 776 775 773 772 771 770 768 766 764 762 760 759 758 757 756 754 752 749 748 746 744 742 738 736 733 729 725 722 719 717 713 709 706 703 702 701 699 698 696 693 691 689 687 685 682 680 677 675 673 670 668 666 663 660 658 656 654 652 650 648 646 644 643 642
799 798 797 796 795 794 793 792 791 790 789 788 787 786 785 784 783 781 780 779 778 776 775 773 772 770 769 768 767 765 763 761 759 758 757 756 754 753 751 749 747 745 744 742 739 736 733 730 727 723 719 716 713 711 708 705 703 700 698 696 695 693 691 689 687 685 682 680 677 675 673 670 668 666 663 660 658 655 653 650 648 647 645 643 641 639
799 798 797 796 795 794 793 792 791 790 789 788 786 785 784 783 782 780 779 778 777 775 774 773 771 769 767 766 764 763 762 760 758 757 755 754 753 752 750 748 746 744 742 741 739 737 734 731 728 724 720 717 713 710 708 707 704 701 698 695 693 692 690 688 687 684 682 680 678 675 672 670 668 665 663 660 658 655 653 650 648 646 644 642 640 638
798 797 796 795 794 794 793 792 790 789 788 787 786 784 783 782 781 779 778 777 776 774 773 772 770 768 766 764 763 761 760 758 757 755 754 753 751 750 748 747 745 743 741 739 738 736 734 731 728 725 722 719 715 711 708 706 704 702 699 696 692 690 688 688 686 684 682 680 678 675 673 670 668 665 663 661 658 656 654 652 649 647 645 644 641 638
798 797 796 795 794 793 792 791 790 789 788 786 785 784 783 781 780 778 777 776 774 773 772 770 768 767 765 763 762 760 758 757 755 754 752 751 750 748 747 745 743 741 740 738 736 734 733 730 727 724 722 719 716 712 709 706 704 702 700 697 693 690 688 687 685 683 682 679 678 675 673 670 668 665 663 661 659 657 655 653 650 648 646 645 643 641
798 797 796 794 793 792 791 790 789 788 787 786 784 783 782 781 779 778 776 775 773 772 771 769 768 765 763 761 759 758 757 755 754 753 751 749 748 747 745 743 742 740 738 736 734 733 731 729 727 724 721 718 716 712 708 705 703 702 700 698 694 690 687 685 684 683 682 679 677 675 673 671 668 665 663 661 658 656 654 652 651 649 647 645 643 642
797 796 795 794 793 792 791 789 788 787 786 785 784 783 781 780 779 778 776 774 773 771 770 768 767 765 763 760 758 756 755 753 752 751 750 748 747 745 744 742 741 739 737 735 733 731 729 728 725 723 720 718 716 713 709 705 703 701 699 697 695 692 688 684 683 682 681 679 677 675 673 671 668 666 663 660 658 655 653 652 650 648 647 645 643 642
797 796 795 793 792 791 790 789 788 787 786 784 783 782 781 780 778 777 776 774 772 771 769 768 766 764 762 760 757 755 753 752 750 749 748 747 745 744 743 741 739 738 736 735 733 730 727 725 723 721 719 717 715 712 708 705 703 700 698 696 695 693 690 686 683 681 680 678 677 675 673 671 669 666 663 660 657 655 653 651 649 647 646 645 643 642
796 795 794 793 792 791 789 788 787 786 785 784 783 781 780 779 778 777 775 773 772 770 768 767 765 763 761 759 757 754 752 750 749 747 746 745 744 743 741 740 738 737 735 733 731 729 727 724 722 719 718 716 714 711 708 705 702 699 697 695 694 692 689 687 684 682 680 678 676 674 673 671 669 666 662 659 657 654 653 651 649 647 645 644 643 641
796 794 793 792 791 790 789 788 787 786 784 783 782 781 779 778 777 776 774 773 771 769 768 767 765 763 761 758 756 754 752 749 748 746 744 743 742 741 740 738 737 735 733 731 730 728 726 724 721 718 716 714 712 709 707 705 702 699 696 694 693 690 688 686 684 683 681 678 676 674 672 671 668 666 663 659 656 654 652 650 649 647 645 643 642 641
795 794 793 792 791 790 788 788 786 785 784 783 781 780 779 778 776 775 773 772 771 769 768 766 764 763 761 758 756 754 752 749 747 745 743 742 740 739 738 737 735 734 732 730 728 726 724 722 720 718 716 713 710 707 705 703 701 699 696 694 692 689 687 685 683 682 680 678 676 674 672 670 668 665 663 659 656 653 651 649 648 647 645 643 642 640
794 793 793 791 790 789 788 787 786 785 783 782 780 779 778 777 776 774 773 772 770 769 767 765 764 762 760 758 756 754 752 749 747 744 743 741 739 738 736 735 733 732 730 728 726 724 722 720 718 717 715 713 709 706 703 702 700 698 696 693 691 689 687 685 683 682 680 678 676 674 673 671 668 666 663 659 656 653 650 648 647 646 645 643 642 640
794 793 792 791 790 789 788 786 785 784 783 781 780 778 777 776 775 774 773 771 770 768 767 765 763 761 759 757 755 753 751 749 747 744 742 740 739 737 735 733 732 730 728 726 724 722 720 718 717 715 713 712 709 706 703 701 699 697 695 693 691 689 687 684 682 681 679 678 676 674 673 671 669 667 664 660 656 653 649 647 646 644 643 643 641 639
793 792 791 790 789 788 787 786 785 783 782 781 779 778 777 775 774 773 772 771 769 768 766 764 763 761 758 756 754 752 750 748 746 744 742 740 738 736 734 733 731 728 726 723 721 719 717 715 714 713 712 710 708 706 703 700 698 696 694 692 690 688 686 684 682 680 679 677 675 673 671 670 668 666 664 661 657 653 649 647 644 643 642 641 640 638
793 792 791 790 789 788 787 785 784 783 782 781 779 778 776 775 773 772 771 770 768 767 765 764 762 760 758 756 753 752 750 748 746 743 741 739 738 736 734 732 730 728 725 722 720 718 715 713 711 709 708 708 707 706 703 700 698 695 693 691 689 688 686 683 681 679 678 676 674 673 671 669 667 665 663 661 658 654 650 646 643 642 641 640 639 637